Location: Gradaro
(45.0833°N, 10.8833°E)
Time: 21:52:21
(UTC+00:00)

CZ-4B R/B - Pass Details

Date: 29 November 2020
Orbit: 485 x 652 km, 97.9° (Epoch: 21 January)

Event Time Altitude Azimuth Distance (km) Brightness Sun altitude
Rises 05:09:47 0° 6° (N) 2,987 6.5 -14.2°
Reaches altitude 10° 05:12:06 10° 359° (N) 2,068 5.6 -13.8°
Maximum altitude 05:16:21 41° 290° (WNW) 937 3.5 -13.1°
Drops below altitude 10° 05:20:29 10° 221° (SW) 2,008 5.5 -12.4°
Sets 05:22:43 0° 214° (SSW) 2,890 6.3 -12.1°
